Home > Weather > Lohne (Oldenburg) > Past weeks

Flag for Germany Past Weather in Lohne (Oldenburg), Lower Saxony, Germany — Yesterday and Last 2 Weeks

Now
63 °F

Light rain. Passing clouds.


Feels Like: 63 °F
Forecast: 54 / 62 °F
Wind: 13 mph from Southwest

Location: Bremen Airport

Current Time: Jul 2, 2016 at 12:37:40 AM

Latest Report: Jul 2, 2016 at 12:20 AM


Visibility: 3 mi

Pressure: 29.83 "Hg

Humidity: 94%

Dew Point: 61 °F

Location of Lohne (Oldenburg)Location

Past Weather in Lohne (Oldenburg) — Graph

°F

Lohne (Oldenburg) Temperature Yesterday

Maximum temperature yesterday: 68 °F (at 2:20 PM)
Minimum temperature yesterday: 61 °F (at 2:50 AM)
Average temperature yesterday: 64 °F

High & Low Weather Summary for the Past Weeks

 TemperatureHumidityPressure
High88 °F (Jun 23, 2:50 PM)100% (Jun 17, 2:50 AM)30.21 "Hg (Jun 17, 2:50 AM)
Low46 °F (Jun 20, 1:50 AM)43% (Jun 28, 3:20 PM)29.56 "Hg (Jun 17, 1:50 AM)
Average63 °F81%29.97 "Hg
* Reported Jun 16 11:20 PM — Jul 1 11:20 PM, Lohne (Oldenburg), Weather by CustomWeather, © 2016

Note: Actual official high and low records may vary slightly from our data, if they occured in-between our weather recording intervals... More about our weather records

Advertising

Lohne (Oldenburg) Weather History for the Previous 24 Hours

Scroll right to see more
 ConditionsComfort  
Time TempWeatherWind HumidityBarometerVisibility
11:20 PM
Fri, Jul 1
64 °FClear.10 mph88%29.80 "Hg10 mi
10:50 PM64 °FSunny.10 mph88%29.83 "Hg10 mi
10:20 PM64 °FPartly sunny.8 mph88%29.83 "HgN/A
9:50 PM66 °FPartly sunny.9 mph83%29.83 "HgN/A
9:20 PM66 °FBroken clouds.7 mph88%29.83 "HgN/A
8:50 PM66 °FBroken clouds.7 mph88%29.83 "HgN/A
8:20 PM66 °FBroken clouds.7 mph88%29.83 "HgN/A
7:50 PM68 °FBroken clouds.7 mph83%29.86 "HgN/A
7:20 PM66 °FPartly sunny.6 mph88%29.86 "HgN/A
6:50 PM66 °FBroken clouds.8 mph88%29.86 "HgN/A
6:20 PM66 °FPartly sunny.10 mph83%29.86 "HgN/A
5:50 PM66 °FBroken clouds.12 mph88%29.86 "HgN/A
5:20 PM66 °FBroken clouds.12 mph88%29.86 "HgN/A
4:50 PM64 °FBroken clouds.10 mph88%29.89 "HgN/A
4:20 PM63 °FDrizzle. Partly sunny.12 mph94%29.89 "Hg6 mi
3:50 PM64 °FDrizzle. Partly sunny.12 mph94%29.89 "HgN/A
3:20 PM68 °FPartly sunny.18 mph78%29.86 "HgN/A
2:50 PM68 °FBroken clouds.17 mph78%29.89 "HgN/A
2:20 PM68 °FBroken clouds.15 mph78%29.89 "HgN/A
1:50 PM66 °FPartly sunny.10 mph83%29.89 "HgN/A
1:20 PM66 °FPartly sunny.12 mph83%29.89 "HgN/A
12:50 PM66 °FPartly sunny.13 mph83%29.89 "HgN/A
12:20 PM64 °FPartly sunny.12 mph88%29.89 "HgN/A
11:50 AM64 °FPartly sunny.10 mph88%29.89 "HgN/A
11:20 AM63 °FPartly sunny.8 mph94%29.89 "HgN/A
10:50 AM63 °FDrizzle. Partly sunny.10 mph94%29.89 "HgN/A
10:20 AM64 °FPartly sunny.10 mph88%29.86 "HgN/A
9:50 AM64 °FPartly sunny.10 mph88%29.86 "HgN/A
9:20 AM64 °FDrizzle. Broken clouds.10 mph88%29.86 "Hg6 mi
8:50 AM64 °FPartly sunny.12 mph88%29.86 "HgN/A
8:20 AM64 °FPartly sunny.12 mph83%29.86 "HgN/A
7:50 AM64 °FPartly sunny.12 mph83%29.86 "HgN/A
7:20 AM63 °FPartly sunny.12 mph88%29.86 "HgN/A
6:50 AM63 °FBroken clouds.12 mph88%29.86 "HgN/A
6:20 AM63 °FPartly sunny.9 mph88%29.86 "HgN/A
5:50 AM63 °FClear.9 mph88%29.86 "Hg10 mi
5:20 AM61 °FPassing clouds.9 mph94%29.86 "HgN/A
4:50 AM61 °FPassing clouds.6 mph88%29.86 "HgN/A
4:20 AM61 °FPassing clouds.5 mph88%29.86 "HgN/A
3:50 AM61 °FPassing clouds.5 mph88%29.86 "HgN/A
3:20 AM61 °FPassing clouds.6 mph83%29.86 "HgN/A
2:50 AM61 °FPassing clouds.7 mph83%29.86 "HgN/A
2:20 AM63 °FPassing clouds.8 mph77%29.86 "HgN/A
1:50 AM63 °FPassing clouds.9 mph88%29.86 "HgN/A
1:20 AM64 °FPassing clouds.8 mph83%29.86 "HgN/A
12:50 AM63 °FClear.6 mph88%29.86 "Hg10 mi
12:20 AM64 °FClear.8 mph83%29.86 "Hg10 mi
Weather by CustomWeather, © 2016

See weather overviewHow to use our weather pages